LANDSAT 9

Last updated on Sat Apr 13 2024 01:02:25 GMT+0100 (British Summer Time)

1 49260U 21088A 24103.17975303 .00000532 00000+0 12803-3 0 9991 2 49260 98.1911 173.9040 0001316 83.3447 276.7901 14.57125732135082
UTC large
Height (km)
Speed (km/s)
/
Latitude / Longitude
Inclination (degrees)
Orbital Period (minutes)
Azimuth
Elevation
Range (km)
Doppler Factor

Next 0 passes for location: London (51.5072 / 0.1276)

Sorry there are no passes over London.